Time,TemperatureF,DewpointF,PressureIn,WindDirection,WindDirectionDegrees,WindSpeedMPH,WindSpeedGustMPH,Humidity,HourlyPrecipIn,Conditions,Clouds,dailyrainin,SoftwareType,DateUTC
2013-02-04 00:00:00,82.6,73.1,29.59,SSW,202,1.3,2.2,73,0.00,,,0.00,VWS V14.01,2013-02-03 14:00:00,
2013-02-04 00:01:00,82.6,73.1,29.59,SSW,202,1.6,1.6,73,0.00,,,0.00,VWS V14.01,2013-02-03 14:01:00,
2013-02-04 00:02:00,82.6,73.1,29.59,South,180,0.9,2.5,73,0.00,,,0.00,VWS V14.01,2013-02-03 14:02:00,
2013-02-04 00:03:00,82.6,73.1,29.59,South,180,0.0,0.9,73,0.00,,,0.00,VWS V14.01,2013-02-03 14:03:00,
2013-02-04 00:04:00,82.6,73.1,29.59,South,180,0.0,0.0,73,0.00,,,0.00,VWS V14.01,2013-02-03 14:04:00,
2013-02-04 00:05:00,82.6,73.1,29.59,South,180,1.1,1.1,73,0.00,,,0.00,VWS V14.01,2013-02-03 14:05:00,
2013-02-04 00:06:00,82.6,73.1,29.59,SSW,202,0.0,1.1,73,0.00,,,0.00,VWS V14.01,2013-02-03 14:06:00,
2013-02-04 00:07:00,82.4,72.9,29.59,South,180,2.5,2.5,73,0.00,,,0.00,VWS V14.01,2013-02-03 14:07:00,
2013-02-04 00:08:00,82.4,72.9,29.59,SW,225,3.4,3.4,73,0.00,,,0.00,VWS V14.01,2013-02-03 14:08:00,
2013-02-04 00:09:00,82.4,72.9,29.59,SSW,202,2.7,3.4,73,0.00,,,0.00,VWS V14.01,2013-02-03 14:09:00,
2013-02-04 00:10:00,82.4,72.5,29.59,SSW,202,3.8,3.8,72,0.00,,,0.00,VWS V14.01,2013-02-03 14:10:00,
2013-02-04 00:11:00,82.4,72.5,29.59,SSW,202,1.3,3.8,72,0.00,,,0.00,VWS V14.01,2013-02-03 14:11:00,
2013-02-04 00:12:00,82.4,72.5,29.59,SSW,202,0.0,1.3,72,0.00,,,0.00,VWS V14.01,2013-02-03 14:12:00,
2013-02-04 00:13:00,82.6,72.7,29.59,South,180,2.7,2.7,72,0.00,,,0.00,VWS V14.01,2013-02-03 14:13:00,
2013-02-04 00:14:00,82.6,72.7,29.59,SSW,202,2.5,2.7,72,0.00,,,0.00,VWS V14.01,2013-02-03 14:14:00,
2013-02-04 00:15:00,82.6,72.7,29.59,SSW,202,3.1,3.1,72,0.00,,,0.00,VWS V14.01,2013-02-03 14:15:00,
2013-02-04 00:16:00,82.6,72.7,29.59,South,180,0.0,3.1,72,0.00,,,0.00,VWS V14.01,2013-02-03 14:16:00,
2013-02-04 00:17:00,82.6,72.7,29.59,South,180,2.2,2.2,72,0.00,,,0.00,VWS V14.01,2013-02-03 14:17:00,
2013-02-04 00:18:00,82.6,72.7,29.59,South,180,0.0,2.2,72,0.00,,,0.00,VWS V14.01,2013-02-03 14:18:00,
2013-02-04 00:19:00,82.4,72.5,29.59,South,180,1.3,1.3,72,0.00,,,0.00,VWS V14.01,2013-02-03 14:19:00,
2013-02-04 00:20:00,82.6,72.7,29.59,South,180,2.2,2.2,72,0.00,,,0.00,VWS V14.01,2013-02-03 14:20:00,
2013-02-04 00:21:00,82.6,72.7,29.59,South,180,2.5,2.5,72,0.00,,,0.00,VWS V14.01,2013-02-03 14:21:00,
2013-02-04 00:22:00,82.6,72.7,29.59,South,180,2.5,2.5,72,0.00,,,0.00,VWS V14.01,2013-02-03 14:22:00,
2013-02-04 00:23:00,82.4,72.5,29.59,South,180,0.9,2.5,72,0.00,,,0.00,VWS V14.01,2013-02-03 14:23:00,
2013-02-04 00:24:00,82.4,72.5,29.59,SSW,202,0.9,0.9,72,0.00,,,0.00,VWS V14.01,2013-02-03 14:24:00,
2013-02-04 00:25:00,82.2,72.7,29.59,South,180,2.7,2.7,73,0.00,,,0.00,VWS V14.01,2013-02-03 14:25:00,
2013-02-04 00:26:00,82.2,72.7,29.59,South,180,2.7,2.7,73,0.00,,,0.00,VWS V14.01,2013-02-03 14:26:00,
2013-02-04 00:27:00,82.2,72.7,29.59,SSE,158,3.1,3.1,73,0.00,,,0.00,VWS V14.01,2013-02-03 14:27:00,
2013-02-04 00:28:00,82.4,72.9,29.59,SSE,158,2.0,3.1,73,0.00,,,0.00,VWS V14.01,2013-02-03 14:28:00,
2013-02-04 00:29:00,82.4,72.9,29.59,SSE,158,2.7,2.7,73,0.00,,,0.00,VWS V14.01,2013-02-03 14:29:00,
2013-02-04 00:30:00,82.2,72.7,29.59,SSE,158,3.1,3.1,73,0.00,,,0.00,VWS V14.01,2013-02-03 14:30:00,
2013-02-04 00:31:00,82.2,72.7,29.59,South,180,2.5,3.1,73,0.00,,,0.00,VWS V14.01,2013-02-03 14:31:00,
2013-02-04 00:32:00,82.2,72.7,29.59,SSW,202,3.1,3.1,73,0.00,,,0.00,VWS V14.01,2013-02-03 14:32:00,
2013-02-04 00:33:00,82.2,72.7,29.59,SSW,202,2.5,3.1,73,0.00,,,0.00,VWS V14.01,2013-02-03 14:33:00,
2013-02-04 00:34:00,82.2,73.1,29.59,SSW,202,0.0,2.5,74,0.00,,,0.00,VWS V14.01,2013-02-03 14:34:00,
2013-02-04 00:35:00,82.2,73.1,29.59,South,180,2.5,2.5,74,0.00,,,0.00,VWS V14.01,2013-02-03 14:35:00,
2013-02-04 00:36:00,82.2,73.1,29.59,South,180,2.5,2.5,74,0.00,,,0.00,VWS V14.01,2013-02-03 14:36:00,
2013-02-04 00:37:00,82.2,73.1,29.59,South,180,1.3,2.5,74,0.00,,,0.00,VWS V14.01,2013-02-03 14:37:00,
2013-02-04 00:38:00,82.2,73.1,29.59,SSE,158,2.5,2.5,74,0.00,,,0.00,VWS V14.01,2013-02-03 14:38:00,
2013-02-04 00:39:00,82.2,73.1,29.59,South,180,3.6,3.6,74,0.00,,,0.00,VWS V14.01,2013-02-03 14:39:00,
2013-02-04 00:40:00,82.0,72.9,29.59,SE,135,2.0,2.0,74,0.00,,,0.00,VWS V14.01,2013-02-03 14:40:00,
2013-02-04 00:41:00,82.0,72.9,29.59,SE,135,2.0,2.0,74,0.00,,,0.00,VWS V14.01,2013-02-03 14:41:00,
2013-02-04 00:42:00,82.0,72.9,29.59,SE,135,1.6,2.0,74,0.00,,,0.00,VWS V14.01,2013-02-03 14:42:00,
2013-02-04 00:43:00,82.0,72.9,29.59,South,180,2.7,2.7,74,0.00,,,0.00,VWS V14.01,2013-02-03 14:43:00,
2013-02-04 00:44:00,82.0,72.9,29.59,South,180,3.4,3.4,74,0.00,,,0.00,VWS V14.01,2013-02-03 14:44:00,
2013-02-04 00:45:00,81.9,72.8,29.59,SSW,202,0.0,0.0,74,0.00,,,0.00,VWS V14.01,2013-02-03 14:45:00,
2013-02-04 00:46:00,81.9,72.8,29.59,SW,225,0.0,0.0,74,0.00,,,0.00,VWS V14.01,2013-02-03 14:46:00,
2013-02-04 00:47:00,81.9,72.8,29.59,SW,225,2.5,2.5,74,0.00,,,0.00,VWS V14.01,2013-02-03 14:47:00,
2013-02-04 00:48:00,82.0,72.9,29.59,SW,225,0.0,2.5,74,0.00,,,0.00,VWS V14.01,2013-02-03 14:48:00,
2013-02-04 00:49:00,82.0,72.9,29.59,SSW,202,1.3,1.3,74,0.00,,,0.00,VWS V14.01,2013-02-03 14:49:00,
2013-02-04 00:50:00,81.9,72.8,29.59,SW,225,0.0,1.3,74,0.00,,,0.00,VWS V14.01,2013-02-03 14:50:00,
2013-02-04 00:51:00,81.9,72.8,29.59,SW,225,0.0,0.0,74,0.00,,,0.00,VWS V14.01,2013-02-03 14:51:00,
2013-02-04 00:52:00,81.9,72.8,29.59,SW,225,0.0,0.0,74,0.00,,,0.00,VWS V14.01,2013-02-03 14:52:00,
2013-02-04 00:53:00,81.9,72.8,29.59,South,180,3.4,3.4,74,0.00,,,0.00,VWS V14.01,2013-02-03 14:53:00,
2013-02-04 00:54:00,81.9,72.8,29.59,South,180,1.1,3.4,74,0.00,,,0.00,VWS V14.01,2013-02-03 14:54:00,
2013-02-04 00:55:00,81.9,72.8,29.59,South,180,0.0,1.1,74,0.00,,,0.00,VWS V14.01,2013-02-03 14:55:00,
2013-02-04 00:56:00,81.9,72.8,29.59,SW,225,2.9,2.9,74,0.00,,,0.00,VWS V14.01,2013-02-03 14:56:00,
2013-02-04 00:57:00,82.0,72.9,29.59,WSW,248,1.6,2.9,74,0.00,,,0.00,VWS V14.01,2013-02-03 14:57:00,
2013-02-04 00:58:00,81.9,72.8,29.59,SSE,158,0.0,3.1,74,0.00,,,0.00,VWS V14.01,2013-02-03 14:58:00,
2013-02-04 00:59:00,81.9,72.8,29.59,SSW,202,2.9,2.9,74,0.00,,,0.00,VWS V14.01,2013-02-03 14:59:00,
2013-02-04 01:00:00,81.9,72.8,29.59,WSW,248,3.1,3.1,74,0.00,,,0.00,VWS V14.01,2013-02-03 15:00:00,
2013-02-04 01:01:00,81.9,72.8,29.59,SSW,202,1.6,3.1,74,0.00,,,0.00,VWS V14.01,2013-02-03 15:01:00,
2013-02-04 01:02:00,81.7,72.6,29.59,South,180,0.0,1.6,74,0.00,,,0.00,VWS V14.01,2013-02-03 15:02:00,
2013-02-04 01:03:00,81.7,72.6,29.59,SSW,202,1.1,1.1,74,0.00,,,0.00,VWS V14.01,2013-02-03 15:03:00,
2013-02-04 01:04:00,81.7,72.6,29.59,SSW,202,2.5,2.5,74,0.00,,,0.00,VWS V14.01,2013-02-03 15:04:00,
2013-02-04 01:05:00,81.7,72.6,29.59,SSE,158,3.1,3.1,74,0.00,,,0.00,VWS V14.01,2013-02-03 15:05:00,
2013-02-04 01:06:00,81.7,72.6,29.59,SSW,202,2.5,3.1,74,0.00,,,0.00,VWS V14.01,2013-02-03 15:06:00,
2013-02-04 01:07:00,81.7,72.6,29.59,South,180,2.7,2.7,74,0.00,,,0.00,VWS V14.01,2013-02-03 15:07:00,
2013-02-04 01:08:00,81.7,72.6,29.59,South,180,2.7,2.7,74,0.00,,,0.00,VWS V14.01,2013-02-03 15:08:00,
2013-02-04 01:09:00,81.7,72.6,29.59,South,180,2.5,2.7,74,0.00,,,0.00,VWS V14.01,2013-02-03 15:09:00,
2013-02-04 01:10:00,81.7,72.6,29.59,South,180,2.7,2.7,74,0.00,,,0.00,VWS V14.01,2013-02-03 15:10:00,
2013-02-04 01:11:00,81.7,72.6,29.59,SSE,158,2.0,2.7,74,0.00,,,0.00,VWS V14.01,2013-02-03 15:11:00,
2013-02-04 01:12:00,81.7,72.6,29.59,South,180,2.0,2.7,74,0.00,,,0.00,VWS V14.01,2013-02-03 15:12:00,
2013-02-04 01:13:00,81.5,72.4,29.59,SSE,158,2.9,2.9,74,0.00,,,0.00,VWS V14.01,2013-02-03 15:13:00,
2013-02-04 01:14:00,81.7,73.0,29.59,SSE,158,1.3,2.9,75,0.00,,,0.00,VWS V14.01,2013-02-03 15:14:00,
2013-02-04 01:15:00,81.7,73.0,29.59,South,180,2.0,2.0,75,0.00,,,0.00,VWS V14.01,2013-02-03 15:15:00,
2013-02-04 01:16:00,81.7,73.0,29.59,South,180,3.1,3.1,75,0.00,,,0.00,VWS V14.01,2013-02-03 15:16:00,
2013-02-04 01:17:00,81.7,73.0,29.59,South,180,2.7,3.1,75,0.00,,,0.00,VWS V14.01,2013-02-03 15:17:00,
2013-02-04 01:18:00,81.7,73.0,29.59,South,180,2.7,2.7,75,0.00,,,0.00,VWS V14.01,2013-02-03 15:18:00,
2013-02-04 01:19:00,81.7,73.0,29.59,South,180,0.0,2.7,75,0.00,,,0.00,VWS V14.01,2013-02-03 15:19:00,
2013-02-04 01:20:00,81.5,72.8,29.59,South,180,1.6,1.6,75,0.00,,,0.00,VWS V14.01,2013-02-03 15:20:00,
2013-02-04 01:21:00,81.5,72.8,29.59,South,180,0.0,1.6,75,0.00,,,0.00,VWS V14.01,2013-02-03 15:21:00,
2013-02-04 01:22:00,81.5,72.8,29.59,SSW,202,2.0,2.0,75,0.00,,,0.00,VWS V14.01,2013-02-03 15:22:00,
2013-02-04 01:23:00,81.5,72.8,29.59,SW,225,0.0,2.0,75,0.00,,,0.00,VWS V14.01,2013-02-03 15:23:00,
2013-02-04 01:24:00,81.5,72.8,29.59,SW,225,1.1,1.1,75,0.00,,,0.00,VWS V14.01,2013-02-03 15:24:00,
2013-02-04 01:25:00,81.3,72.6,29.59,SSW,202,0.0,1.1,75,0.00,,,0.00,VWS V14.01,2013-02-03 15:25:00,
2013-02-04 01:26:00,81.3,72.6,29.59,SE,135,0.0,0.0,75,0.00,,,0.00,VWS V14.01,2013-02-03 15:26:00,
2013-02-04 01:27:00,81.3,72.6,29.59,SE,135,0.0,0.0,75,0.00,,,0.00,VWS V14.01,2013-02-03 15:27:00,
2013-02-04 01:29:00,81.3,72.6,29.59,SE,135,0.0,0.0,75,0.00,,,0.00,VWS V14.01,2013-02-03 15:29:00,
2013-02-04 01:30:00,81.1,72.5,29.59,SE,135,0.0,0.0,75,0.00,,,0.00,VWS V14.01,2013-02-03 15:30:00,
2013-02-04 01:31:00,81.1,72.5,29.59,SE,135,0.0,0.0,75,0.00,,,0.00,VWS V14.01,2013-02-03 15:31:00,
2013-02-04 01:32:00,81.3,72.6,29.59,SE,135,0.0,0.0,75,0.00,,,0.00,VWS V14.01,2013-02-03 15:32:00,
2013-02-04 01:33:00,81.3,72.6,29.59,SE,135,0.0,0.0,75,0.00,,,0.00,VWS V14.01,2013-02-03 15:33:00,
2013-02-04 01:34:00,81.1,72.5,29.59,SE,135,0.0,0.0,75,0.00,,,0.00,VWS V14.01,2013-02-03 15:34:00,
2013-02-04 01:35:00,81.1,72.5,29.59,SE,135,1.1,1.1,75,0.00,,,0.00,VWS V14.01,2013-02-03 15:35:00,
2013-02-04 01:36:00,81.3,73.0,29.59,SSW,202,2.2,2.2,76,0.00,,,0.00,VWS V14.01,2013-02-03 15:36:00,
2013-02-04 01:37:00,81.1,72.9,29.59,SSW,202,2.2,2.2,76,0.00,,,0.00,VWS V14.01,2013-02-03 15:37:00,
2013-02-04 01:39:00,81.1,72.9,29.59,SSE,158,2.0,2.2,76,0.00,,,0.00,VWS V14.01,2013-02-03 15:39:00,
2013-02-04 01:40:00,81.1,72.9,29.59,SSE,158,0.0,2.0,76,0.00,,,0.00,VWS V14.01,2013-02-03 15:40:00,
2013-02-04 01:41:00,81.1,72.9,29.59,SSW,202,2.7,2.7,76,0.00,,,0.00,VWS V14.01,2013-02-03 15:41:00,
2013-02-04 01:42:00,81.1,72.9,29.59,SSE,158,2.2,2.7,76,0.00,,,0.00,VWS V14.01,2013-02-03 15:42:00,
2013-02-04 01:44:00,81.1,72.9,29.59,SSE,158,2.2,2.2,76,0.00,,,0.00,VWS V14.01,2013-02-03 15:44:00,
2013-02-04 01:45:00,81.1,72.9,29.56,SSE,158,2.0,2.2,76,0.00,,,0.00,VWS V14.01,2013-02-03 15:45:00,
2013-02-04 01:46:00,81.0,72.7,29.56,SE,135,1.6,2.0,76,0.00,,,0.00,VWS V14.01,2013-02-03 15:46:00,
2013-02-04 01:47:00,81.0,72.7,29.56,SE,135,0.0,1.6,76,0.00,,,0.00,VWS V14.01,2013-02-03 15:47:00,
2013-02-04 01:48:00,81.0,72.7,29.56,SE,135,0.0,0.0,76,0.00,,,0.00,VWS V14.01,2013-02-03 15:48:00,
2013-02-04 01:49:00,81.0,72.7,29.56,SE,135,2.0,2.0,76,0.00,,,0.00,VWS V14.01,2013-02-03 15:49:00,
2013-02-04 01:50:00,81.1,72.9,29.56,SE,135,2.0,2.0,76,0.00,,,0.00,VWS V14.01,2013-02-03 15:50:00,
2013-02-04 01:51:00,81.1,72.9,29.56,SE,135,1.3,2.0,76,0.00,,,0.00,VWS V14.01,2013-02-03 15:51:00,
2013-02-04 01:52:00,81.1,72.9,29.56,SE,135,1.3,2.0,76,0.00,,,0.00,VWS V14.01,2013-02-03 15:52:00,
2013-02-04 01:53:00,81.1,72.9,29.56,SE,135,1.6,1.6,76,0.00,,,0.00,VWS V14.01,2013-02-03 15:53:00,
2013-02-04 01:54:00,81.1,72.9,29.56,SE,135,2.0,2.0,76,0.00,,,0.00,VWS V14.01,2013-02-03 15:54:00,
2013-02-04 01:55:00,81.1,72.9,29.56,SE,135,2.9,3.1,76,0.00,,,0.00,VWS V14.01,2013-02-03 15:55:00,
2013-02-04 01:56:00,81.1,72.9,29.56,SE,135,3.1,3.1,76,0.00,,,0.00,VWS V14.01,2013-02-03 15:56:00,
2013-02-04 01:57:00,81.1,72.9,29.56,SE,135,0.0,3.1,76,0.00,,,0.00,VWS V14.01,2013-02-03 15:57:00,
2013-02-04 01:58:00,81.1,72.9,29.56,SE,135,1.1,1.1,76,0.00,,,0.00,VWS V14.01,2013-02-03 15:58:00,
2013-02-04 01:59:00,81.1,72.9,29.56,SE,135,1.1,1.1,76,0.00,,,0.00,VWS V14.01,2013-02-03 15:59:00,
2013-02-04 02:00:00,81.0,72.7,29.56,SE,135,0.0,1.1,76,0.00,,,0.00,VWS V14.01,2013-02-03 16:00:00,
2013-02-04 02:01:00,80.8,72.9,29.56,SE,135,0.0,0.0,77,0.00,,,0.00,VWS V14.01,2013-02-03 16:01:00,
2013-02-04 02:02:00,80.8,72.9,29.56,SE,135,0.0,0.0,77,0.00,,,0.00,VWS V14.01,2013-02-03 16:02:00,
2013-02-04 02:03:00,80.8,72.9,29.56,SE,135,0.0,0.0,77,0.00,,,0.00,VWS V14.01,2013-02-03 16:03:00,
2013-02-04 02:04:00,80.8,72.9,29.56,SE,135,1.1,1.1,77,0.00,,,0.00,VWS V14.01,2013-02-03 16:04:00,
2013-02-04 02:05:00,80.8,72.9,29.56,SE,135,1.1,1.1,77,0.00,,,0.00,VWS V14.01,2013-02-03 16:05:00,
2013-02-04 02:06:00,80.8,72.9,29.56,SE,135,1.1,1.6,77,0.00,,,0.00,VWS V14.01,2013-02-03 16:06:00,
2013-02-04 02:07:00,80.8,72.9,29.56,SE,135,1.3,1.6,77,0.00,,,0.00,VWS V14.01,2013-02-03 16:07:00,
2013-02-04 02:08:00,80.8,72.9,29.56,SE,135,2.0,2.0,77,0.00,,,0.00,VWS V14.01,2013-02-03 16:08:00,
2013-02-04 02:09:00,80.8,72.9,29.56,SE,135,2.0,2.0,77,0.00,,,0.00,VWS V14.01,2013-02-03 16:09:00,
2013-02-04 02:10:00,80.8,72.9,29.56,SE,135,0.0,2.0,77,0.00,,,0.00,VWS V14.01,2013-02-03 16:10:00,
2013-02-04 02:11:00,80.8,72.9,29.56,SE,135,1.6,1.6,77,0.00,,,0.00,VWS V14.01,2013-02-03 16:11:00,
2013-02-04 02:12:00,80.8,72.9,29.56,SE,135,0.0,1.6,77,0.00,,,0.00,VWS V14.01,2013-02-03 16:12:00,
2013-02-04 02:13:00,80.8,72.9,29.56,SE,135,2.5,2.5,77,0.00,,,0.00,VWS V14.01,2013-02-03 16:13:00,
2013-02-04 02:14:00,80.8,72.9,29.56,SSE,158,1.6,2.9,77,0.00,,,0.00,VWS V14.01,2013-02-03 16:14:00,
2013-02-04 02:15:00,80.8,72.9,29.56,SSE,158,2.5,2.5,77,0.00,,,0.00,VWS V14.01,2013-02-03 16:15:00,
2013-02-04 02:16:00,80.8,72.9,29.56,South,180,1.3,2.5,77,0.00,,,0.00,VWS V14.01,2013-02-03 16:16:00,
2013-02-04 02:17:00,80.8,72.9,29.56,South,180,1.3,2.5,77,0.00,,,0.00,VWS V14.01,2013-02-03 16:17:00,
2013-02-04 02:18:00,80.8,72.9,29.56,South,180,2.7,2.7,77,0.00,,,0.00,VWS V14.01,2013-02-03 16:18:00,
2013-02-04 02:19:00,80.8,72.9,29.56,SSE,158,2.5,2.7,77,0.00,,,0.00,VWS V14.01,2013-02-03 16:19:00,
2013-02-04 12:57:00,91.6,78.6,29.62,NNW,338,4.0,4.0,66,0.00,,,0.00,VWS V14.01,2013-02-04 02:57:00,
2013-02-04 13:02:00,91.6,78.6,29.59,NE,45,3.8,3.8,66,0.00,,,0.00,VWS V14.01,2013-02-04 03:02:00,
2013-02-04 13:07:00,92.1,79.1,29.59,NE,45,4.0,4.0,66,0.00,,,0.00,VWS V14.01,2013-02-04 03:07:00,
2013-02-04 13:12:00,92.3,79.3,29.59,NNE,22,7.4,7.4,66,0.00,,,0.00,VWS V14.01,2013-02-04 03:12:00,
2013-02-04 13:17:00,91.4,78.0,29.59,NNE,22,1.1,6.0,65,0.00,,,0.00,VWS V14.01,2013-02-04 03:17:00,
2013-02-04 13:22:00,90.9,77.5,29.59,NE,45,4.9,6.5,65,0.00,,,0.00,VWS V14.01,2013-02-04 03:22:00,
2013-02-04 13:27:00,90.9,77.5,29.59,NNE,22,3.8,3.8,65,0.00,,,0.00,VWS V14.01,2013-02-04 03:27:00,
2013-02-04 13:32:00,90.9,77.9,29.59,North,360,3.6,3.6,66,0.00,,,0.00,VWS V14.01,2013-02-04 03:32:00,
2013-02-04 13:37:00,90.9,77.9,29.59,NE,45,3.1,5.6,66,0.00,,,0.00,VWS V14.01,2013-02-04 03:37:00,
2013-02-04 13:42:00,90.5,77.6,29.59,NNE,22,3.1,4.3,66,0.00,,,0.00,VWS V14.01,2013-02-04 03:42:00,
2013-02-04 13:47:00,90.5,77.6,29.59,NNE,22,2.5,6.5,66,0.00,,,0.00,VWS V14.01,2013-02-04 03:47:00,
2013-02-04 13:52:00,90.1,77.2,29.59,ENE,68,3.4,5.6,66,0.00,,,0.00,VWS V14.01,2013-02-04 03:52:00,
2013-02-04 13:57:00,90.3,77.4,29.59,NNW,338,4.9,4.9,66,0.00,,,0.00,VWS V14.01,2013-02-04 03:57:00,
2013-02-04 14:02:00,90.3,77.4,29.59,North,360,4.3,4.3,66,0.00,,,0.00,VWS V14.01,2013-02-04 04:02:00,
2013-02-04 14:07:00,91.0,78.1,29.59,NNE,22,2.5,2.5,66,0.00,,,0.00,VWS V14.01,2013-02-04 04:07:00,
2013-02-04 14:12:00,91.6,78.2,29.59,NE,45,4.3,4.3,65,0.00,,,0.00,VWS V14.01,2013-02-04 04:12:00,
2013-02-04 14:17:00,91.2,77.8,29.59,North,360,0.0,0.9,65,0.00,,,0.00,VWS V14.01,2013-02-04 04:17:00,
2013-02-04 14:22:00,91.2,77.3,29.59,North,360,2.5,2.5,64,0.00,,,0.00,VWS V14.01,2013-02-04 04:22:00,
2013-02-04 14:27:00,91.2,77.8,29.59,NNE,22,2.5,2.5,65,0.00,,,0.00,VWS V14.01,2013-02-04 04:27:00,
2013-02-04 14:32:00,92.1,78.2,29.59,NE,45,3.1,4.3,64,0.00,,,0.00,VWS V14.01,2013-02-04 04:32:00,
2013-02-04 14:37:00,91.8,77.8,29.59,NE,45,1.3,1.3,64,0.00,,,0.00,VWS V14.01,2013-02-04 04:37:00,
2013-02-04 14:43:00,91.4,77.0,29.59,NE,45,0.0,2.7,63,0.00,,,0.00,VWS V14.01,2013-02-04 04:43:00,
2013-02-04 14:48:00,91.0,76.7,29.59,North,360,0.0,3.1,63,0.00,,,0.00,VWS V14.01,2013-02-04 04:48:00,
2013-02-04 14:53:00,91.0,76.7,29.59,NNE,22,4.9,4.9,63,0.00,,,0.00,VWS V14.01,2013-02-04 04:53:00,
2013-02-04 14:58:00,91.4,77.0,29.59,NE,45,0.0,6.0,63,0.00,,,0.00,VWS V14.01,2013-02-04 04:58:00,
2013-02-04 15:00:00,91.6,77.2,29.56,NNE,22,3.8,3.8,63,0.00,,,0.00,VWS V14.01,2013-02-04 05:00:00,
2013-02-04 15:01:00,91.6,77.2,29.56,NNW,338,4.9,4.9,63,0.00,,,0.00,VWS V14.01,2013-02-04 05:01:00,
2013-02-04 15:02:00,92.1,77.2,29.56,North,360,1.3,1.3,62,0.00,,,0.00,VWS V14.01,2013-02-04 05:02:00,
2013-02-04 15:03:00,92.1,77.2,29.56,NNE,22,3.4,3.4,62,0.00,,,0.00,VWS V14.01,2013-02-04 05:03:00,
2013-02-04 15:08:00,92.3,77.4,29.56,NNE,22,5.6,5.8,62,0.00,,,0.00,VWS V14.01,2013-02-04 05:08:00,
2013-02-04 15:13:00,92.8,77.4,29.56,NNE,22,3.6,5.4,61,0.00,,,0.00,VWS V14.01,2013-02-04 05:13:00,
2013-02-04 15:18:00,92.7,77.2,29.56,NNW,338,4.3,4.3,61,0.00,,,0.00,VWS V14.01,2013-02-04 05:18:00,
2013-02-04 15:23:00,92.1,76.2,29.56,North,360,1.1,3.6,60,0.00,,,0.00,VWS V14.01,2013-02-04 05:23:00,
2013-02-04 15:28:00,91.9,76.1,29.56,SE,135,1.3,2.5,60,0.00,,,0.00,VWS V14.01,2013-02-04 05:28:00,
2013-02-04 15:33:00,91.4,75.6,29.56,North,360,3.4,3.6,60,0.00,,,0.00,VWS V14.01,2013-02-04 05:33:00,
2013-02-04 15:39:00,91.4,75.6,29.56,NNW,338,4.3,4.3,60,0.00,,,0.00,VWS V14.01,2013-02-04 05:39:00,
2013-02-04 15:44:00,91.6,75.7,29.56,NNE,22,3.8,4.3,60,0.00,,,0.00,VWS V14.01,2013-02-04 05:44:00,
2013-02-04 15:49:00,91.0,75.2,29.56,ENE,68,3.8,3.8,60,0.00,,,0.00,VWS V14.01,2013-02-04 05:49:00,
2013-02-04 15:54:00,91.0,75.2,29.56,NNE,22,4.0,4.0,60,0.00,,,0.00,VWS V14.01,2013-02-04 05:54:00,
2013-02-04 15:59:00,91.4,75.6,29.56,ESE,112,2.9,2.9,60,0.00,,,0.00,VWS V14.01,2013-02-04 05:59:00,
2013-02-04 16:04:00,91.4,75.6,29.56,East,90,3.8,3.8,60,0.00,,,0.00,VWS V14.01,2013-02-04 06:04:00,
2013-02-04 16:09:00,90.9,74.6,29.56,ESE,112,2.0,2.0,59,0.00,,,0.00,VWS V14.01,2013-02-04 06:09:00,
2013-02-04 16:14:00,90.7,74.4,29.56,NNE,22,2.9,2.9,59,0.00,,,0.00,VWS V14.01,2013-02-04 06:14:00,
2013-02-04 16:19:00,90.7,73.9,29.56,ENE,68,2.2,2.5,58,0.00,,,0.00,VWS V14.01,2013-02-04 06:19:00,
2013-02-04 16:24:00,90.7,74.4,29.56,NNE,22,0.0,0.0,59,0.00,,,0.00,VWS V14.01,2013-02-04 06:24:00,
2013-02-04 16:29:00,90.7,74.4,29.56,NNE,22,2.7,2.7,59,0.00,,,0.00,VWS V14.01,2013-02-04 06:29:00,
2013-02-04 16:34:00,90.3,73.6,29.56,NNE,22,2.7,2.7,58,0.00,,,0.00,VWS V14.01,2013-02-04 06:34:00,
2013-02-04 16:39:00,90.3,73.6,29.56,NE,45,1.1,3.1,58,0.00,,,0.00,VWS V14.01,2013-02-04 06:39:00,
2013-02-04 16:44:00,90.1,73.9,29.56,East,90,2.5,3.8,59,0.00,,,0.00,VWS V14.01,2013-02-04 06:44:00,
2013-02-04 16:49:00,90.1,73.4,29.56,NE,45,2.9,2.9,58,0.00,,,0.00,VWS V14.01,2013-02-04 06:49:00,
2013-02-04 16:54:00,90.0,73.2,29.56,NNE,22,5.4,5.4,58,0.00,,,0.00,VWS V14.01,2013-02-04 06:54:00,
2013-02-04 16:59:00,89.8,73.0,29.59,ENE,68,0.0,3.6,58,0.00,,,0.00,VWS V14.01,2013-02-04 06:59:00,
2013-02-04 17:04:00,89.6,72.9,29.59,NE,45,1.3,1.6,58,0.00,,,0.00,VWS V14.01,2013-02-04 07:04:00,
2013-02-04 17:09:00,89.6,73.4,29.59,East,90,3.1,3.1,59,0.00,,,0.00,VWS V14.01,2013-02-04 07:09:00,
2013-02-04 17:14:00,89.4,73.2,29.59,NNE,22,3.6,3.6,59,0.00,,,0.00,VWS V14.01,2013-02-04 07:14:00,
2013-02-04 17:19:00,89.1,72.9,29.59,SE,135,2.5,2.5,59,0.00,,,0.00,VWS V14.01,2013-02-04 07:19:00,
2013-02-04 17:24:00,89.1,73.4,29.59,East,90,0.0,2.2,60,0.00,,,0.00,VWS V14.01,2013-02-04 07:24:00,
2013-02-04 17:30:00,89.1,73.4,29.59,East,90,0.0,2.0,60,0.00,,,0.00,VWS V14.01,2013-02-04 07:30:00,
2013-02-04 17:35:00,89.1,73.4,29.59,South,180,4.9,4.9,60,0.00,,,0.00,VWS V14.01,2013-02-04 07:35:00,
2013-02-04 17:40:00,88.9,73.7,29.59,SSE,158,3.8,3.8,61,0.00,,,0.00,VWS V14.01,2013-02-04 07:40:00,
2013-02-04 17:45:00,88.7,73.5,29.59,South,180,6.7,6.7,61,0.00,,,0.00,VWS V14.01,2013-02-04 07:45:00,
2013-02-04 17:50:00,88.7,73.5,29.59,SSE,158,6.0,6.0,61,0.00,,,0.00,VWS V14.01,2013-02-04 07:50:00,
2013-02-04 17:55:00,88.3,73.2,29.59,SSW,202,6.3,6.3,61,0.00,,,0.00,VWS V14.01,2013-02-04 07:55:00,
2013-02-04 18:00:00,88.2,73.0,29.59,SSW,202,3.8,3.8,61,0.00,,,0.00,VWS V14.01,2013-02-04 08:00:00,